EZY4001 EGFF-EGCC

Flight info

Callsign EZY4001
Flight time 0h 30m
Altitude 18000
Route BCN1B BCN P69 EXBUM/N0395F200 P69 DIZIM N864 MONTY/N0388F190
Aircraft A319/M-SDE3FGHIRWY/LB1

Departure

Time 2026-05-08 14:50
Airport Cardiff International Airport (EGFF)

Arrival

Time 2026-05-08 15:20
Airport Manchester Airport (EGCC)
Time Latitude Longitude Altitude Speed Heading
2026-05-08 14:38 51.39837 -3.34065 224 ft 0 kts 81°
2026-05-08 14:44 51.39837 -3.34066 222 ft 1 kts 82°
2026-05-08 14:45 51.39832 -3.34105 223 ft 4 kts 69°
2026-05-08 14:45 51.39819 -3.34142 227 ft 4 kts 47°
2026-05-08 14:45 51.39811 -3.34155 225 ft 1 kts 40°
2026-05-08 14:46 51.39813 -3.34155 226 ft 1 kts 25°
2026-05-08 14:47 51.39823 -3.34202 225 ft 10 kts 258°
2026-05-08 14:47 51.39850 -3.34339 225 ft 15 kts 297°
2026-05-08 14:47 51.39908 -3.34522 225 ft 26 kts 297°
2026-05-08 14:47 51.40014 -3.34855 224 ft 36 kts 296°
2026-05-08 14:48 51.40128 -3.35222 218 ft 35 kts 296°
2026-05-08 14:48 51.40084 -3.35511 217 ft 31 kts 200°
2026-05-08 14:48 51.39978 -3.35338 216 ft 24 kts 115°
2026-05-08 14:48 51.39902 -3.35093 222 ft 24 kts 116°
2026-05-08 14:49 51.39827 -3.34857 221 ft 23 kts 117°
2026-05-08 14:49 51.39741 -3.34583 223 ft 52 kts 117°
2026-05-08 14:49 51.39422 -3.33578 223 ft 147 kts 116°
2026-05-08 14:49 51.38907 -3.31899 718 ft 177 kts 116°
2026-05-08 14:50 51.38356 -3.30055 1547 ft 196 kts 117°
2026-05-08 14:50 51.37716 -3.27968 2345 ft 222 kts 118°
2026-05-08 14:50 51.36994 -3.25623 3214 ft 246 kts 118°
2026-05-08 14:50 51.36220 -3.23106 4413 ft 256 kts 118°
2026-05-08 14:51 51.35522 -3.20440 5733 ft 266 kts 105°
2026-05-08 14:51 51.35498 -3.17436 7024 ft 278 kts 79°
2026-05-08 14:51 51.36298 -3.14584 8293 ft 289 kts 54°
2026-05-08 14:51 51.37833 -3.12468 9423 ft 298 kts 27°
2026-05-08 14:52 51.39845 -3.11643 10391 ft 303 kts 359°
2026-05-08 14:52 51.44223 -3.12513 11427 ft 347 kts
2026-05-08 14:52 51.46522 -3.11118 11971 ft 362 kts 36°
2026-05-08 14:53 51.48211 -3.08145 12810 ft 365 kts 62°
2026-05-08 14:53 51.49289 -3.04445 13746 ft 368 kts 65°
2026-05-08 14:53 51.50871 -3.01194 14548 ft 377 kts 40°
2026-05-08 14:53 51.53210 -2.99264 15331 ft 384 kts 14°
2026-05-08 14:54 51.55877 -2.99063 16118 ft 388 kts 349°
2026-05-08 14:54 51.58364 -3.00646 16901 ft 389 kts 324°
2026-05-08 14:54 51.60433 -3.03451 17680 ft 391 kts 316°
2026-05-08 14:54 51.62568 -3.06197 18012 ft 394 kts 322°
2026-05-08 14:55 51.64886 -3.08651 18103 ft 408 kts 327°
2026-05-08 14:55 51.67379 -3.11019 18105 ft 420 kts 329°
2026-05-08 14:55 51.69933 -3.13364 18103 ft 423 kts 329°
2026-05-08 14:55 51.72483 -3.15749 18101 ft 424 kts 328°
2026-05-08 14:56 51.75007 -3.18202 18098 ft 424 kts 327°
2026-05-08 14:56 51.77580 -3.20527 18096 ft 425 kts 334°
2026-05-08 14:56 51.80350 -3.22182 18094 ft 426 kts 343°
2026-05-08 14:56 51.83236 -3.23012 18088 ft 427 kts 355°
2026-05-08 14:57 51.86201 -3.22966 18087 ft 427 kts
2026-05-08 14:57 51.89171 -3.22643 18080 ft 427 kts
2026-05-08 14:57 51.92140 -3.22464 18069 ft 427 kts
2026-05-08 14:57 51.95112 -3.22368 18073 ft 427 kts
2026-05-08 14:58 51.98088 -3.22296 18064 ft 427 kts
2026-05-08 14:58 52.01066 -3.22206 18059 ft 427 kts
2026-05-08 14:58 52.04033 -3.22084 18058 ft 427 kts
2026-05-08 14:58 52.07172 -3.21927 18054 ft 427 kts
2026-05-08 14:59 52.18785 -3.21261 18050 ft 427 kts
2026-05-08 14:59 52.42560 -3.19974 18052 ft 427 kts
2026-05-08 14:59 52.54460 -3.19326 18078 ft 428 kts
2026-05-08 15:00 52.66365 -3.18670 18077 ft 428 kts
2026-05-08 15:00 52.78266 -3.18013 18110 ft 428 kts
2026-05-08 15:00 52.90191 -3.17356 18097 ft 427 kts
2026-05-08 15:00 53.01912 -3.16423 18097 ft 428 kts
2026-05-08 15:01 53.11759 -3.15616 17220 ft 399 kts
2026-05-08 15:01 53.14550 -3.15397 16416 ft 403 kts
2026-05-08 15:01 53.17340 -3.15179 15809 ft 400 kts
2026-05-08 15:01 53.20112 -3.14963 15250 ft 397 kts
2026-05-08 15:02 53.22858 -3.14750 14716 ft 393 kts
2026-05-08 15:02 53.25539 -3.14541 14564 ft 378 kts
2026-05-08 15:02 53.28110 -3.14338 14441 ft 363 kts
2026-05-08 15:02 53.30590 -3.14136 14317 ft 349 kts
2026-05-08 15:03 53.32972 -3.13940 14188 ft 337 kts
2026-05-08 15:03 53.35280 -3.13738 14076 ft 327 kts
2026-05-08 15:03 53.37463 -3.12893 13961 ft 318 kts 21°
2026-05-08 15:03 53.39359 -3.11100 13802 ft 310 kts 38°
2026-05-08 15:04 53.40859 -3.08556 13523 ft 305 kts 53°
2026-05-08 15:04 53.42104 -3.05704 13251 ft 302 kts 58°
2026-05-08 15:04 53.43184 -3.02765 12981 ft 299 kts 61°
2026-05-08 15:04 53.44225 -2.99709 12717 ft 297 kts 62°
2026-05-08 15:05 53.45206 -2.96740 12459 ft 295 kts 63°
2026-05-08 15:05 53.46199 -2.93727 12192 ft 293 kts 63°
2026-05-08 15:05 53.47189 -2.90743 11932 ft 292 kts 62°
2026-05-08 15:05 53.48182 -2.87779 11673 ft 290 kts 62°
2026-05-08 15:06 53.49178 -2.84831 11181 ft 288 kts 62°
2026-05-08 15:06 53.50156 -2.81942 10714 ft 282 kts 62°
2026-05-08 15:06 53.51118 -2.79102 10249 ft 277 kts 62°
2026-05-08 15:06 53.52063 -2.76311 9770 ft 273 kts 62°
2026-05-08 15:07 53.52993 -2.73566 9266 ft 267 kts 63°
2026-05-08 15:07 53.53665 -2.70715 8757 ft 259 kts 79°
2026-05-08 15:07 53.53880 -2.67766 8264 ft 251 kts 91°
2026-05-08 15:07 53.53923 -2.64898 7809 ft 245 kts 91°
2026-05-08 15:08 53.53976 -2.62040 7249 ft 244 kts 91°
2026-05-08 15:08 53.54013 -2.60162 6877 ft 243 kts 90°
2026-05-08 15:08 53.54091 -2.56408 6144 ft 241 kts 90°
2026-05-08 15:08 53.54150 -2.53693 6075 ft 224 kts 90°
2026-05-08 15:09 53.54204 -2.51062 6089 ft 226 kts 91°
2026-05-08 15:09 53.54254 -2.48416 6088 ft 227 kts 90°
2026-05-08 15:09 53.54303 -2.45754 6088 ft 233 kts 91°
2026-05-08 15:09 53.54351 -2.42976 6083 ft 233 kts 91°
2026-05-08 15:10 53.54402 -2.40382 6082 ft 214 kts 91°
2026-05-08 15:10 53.54553 -2.37837 6087 ft 222 kts 81°
2026-05-08 15:10 53.54890 -2.35388 6089 ft 217 kts 78°
2026-05-08 15:10 53.55259 -2.32946 6092 ft 214 kts 78°
2026-05-08 15:11 53.55629 -2.30528 6050 ft 213 kts 78°
2026-05-08 15:11 53.55996 -2.28132 5756 ft 211 kts 78°
2026-05-08 15:11 53.56372 -2.25701 5326 ft 218 kts 78°
2026-05-08 15:11 53.56756 -2.23222 5084 ft 216 kts 78°
2026-05-08 15:12 53.57127 -2.20862 5080 ft 202 kts 78°
2026-05-08 15:12 53.57481 -2.18643 5075 ft 192 kts 78°
2026-05-08 15:12 53.57772 -2.16480 4882 ft 188 kts 89°
2026-05-08 15:12 53.57449 -2.14476 4600 ft 180 kts 128°
2026-05-08 15:13 53.56579 -2.12899 4172 ft 187 kts 139°
2026-05-08 15:13 53.55596 -2.11423 3649 ft 195 kts 140°
2026-05-08 15:13 53.54553 -2.09911 3151 ft 202 kts 140°
2026-05-08 15:13 53.53517 -2.08405 3039 ft 186 kts 140°
2026-05-08 15:14 53.52585 -2.07033 3006 ft 177 kts 140°
2026-05-08 15:14 53.51656 -2.05666 3011 ft 178 kts 140°
2026-05-08 15:14 53.50573 -2.04746 3007 ft 176 kts 174°
2026-05-08 15:14 53.49352 -2.05018 3031 ft 179 kts 193°
2026-05-08 15:15 53.48155 -2.05585 3019 ft 177 kts 195°
2026-05-08 15:15 53.47384 -2.05975 3012 ft 174 kts 195°
2026-05-08 15:15 53.46234 -2.06557 3003 ft 166 kts 195°
2026-05-08 15:15 53.45223 -2.07260 2980 ft 152 kts 212°
2026-05-08 15:16 53.44508 -2.08496 2863 ft 145 kts 228°
2026-05-08 15:16 53.43887 -2.09795 2707 ft 141 kts 228°
2026-05-08 15:16 53.43277 -2.11069 2528 ft 139 kts 228°
2026-05-08 15:16 53.42669 -2.12335 2349 ft 139 kts 228°
2026-05-08 15:17 53.42064 -2.13597 2148 ft 139 kts 230°
2026-05-08 15:17 53.41457 -2.14860 1961 ft 139 kts 229°
2026-05-08 15:17 53.40852 -2.16120 1763 ft 139 kts 230°
2026-05-08 15:17 53.40245 -2.17382 1577 ft 139 kts 230°
2026-05-08 15:18 53.39638 -2.18644 1388 ft 139 kts 230°
2026-05-08 15:18 53.39033 -2.19902 1206 ft 138 kts 229°
2026-05-08 15:18 53.38451 -2.21111 1022 ft 130 kts 230°
2026-05-08 15:18 53.37892 -2.22272 848 ft 127 kts 231°
2026-05-08 15:19 53.37344 -2.23410 685 ft 125 kts 231°
2026-05-08 15:19 53.36801 -2.24534 521 ft 122 kts 232°
2026-05-08 15:19 53.36271 -2.25633 357 ft 121 kts 231°
2026-05-08 15:19 53.35755 -2.26703 269 ft 103 kts 231°
2026-05-08 15:20 53.35472 -2.27289 249 ft 42 kts 231°
2026-05-08 15:20 53.35299 -2.27661 240 ft 35 kts 245°
2026-05-08 15:20 53.35248 -2.27975 235 ft 23 kts 263°
2026-05-08 15:20 53.35234 -2.28128 231 ft 0 kts 261°
2026-05-08 15:22 53.35233 -2.28132 231 ft 1 kts 261°
2026-05-08 15:22 53.35232 -2.28167 231 ft 8 kts 274°
2026-05-08 15:22 53.35236 -2.28190 231 ft 14 kts 289°
2026-05-08 15:23 53.35281 -2.28226 232 ft 12 kts
2026-05-08 15:23 53.35359 -2.28177 235 ft 11 kts 17°
2026-05-08 15:23 53.35459 -2.28148 238 ft 19 kts 13°
2026-05-08 15:23 53.35568 -2.28019 237 ft 19 kts 52°
2026-05-08 15:24 53.35668 -2.27886 243 ft 19 kts 12°
2026-05-08 15:24 53.35787 -2.27864 249 ft 16 kts
2026-05-08 15:24 53.35897 -2.27848 255 ft 19 kts
2026-05-08 15:24 53.36021 -2.27941 255 ft 21 kts 318°
2026-05-08 15:25 53.36140 -2.28124 255 ft 25 kts 316°
2026-05-08 15:25 53.36266 -2.28340 255 ft 27 kts 314°
2026-05-08 15:25 53.36422 -2.28500 255 ft 27 kts 329°
2026-05-08 15:25 53.36527 -2.28667 255 ft 2 kts 315°
2026-05-08 15:26 53.36547 -2.28701 255 ft 6 kts 314°
2026-05-08 15:26 53.36580 -2.28765 255 ft 8 kts 314°
2026-05-08 15:26 53.36630 -2.28777 255 ft 8 kts 34°
2026-05-08 15:26 53.36655 -2.28691 255 ft 9 kts 43°
2026-05-08 15:27 53.36702 -2.28615 255 ft 10 kts 43°
2026-05-08 15:27 53.36715 -2.28523 255 ft 9 kts 129°
2026-05-08 15:27 53.36686 -2.28477 255 ft 1 kts 135°
2026-05-08 15:27 53.36685 -2.28475 255 ft 0 kts 135°